Showing default

GLOBALSTAR M072, 31574

Orbit data source: Space-Track

GLOBALSTAR M072, 31574 is a payload satellite owned by Globalstar (US) in LEO that was launched on Tue, 29 May 2007 UTC via a SOYUZ-FG launch vehicle from the Tyuratam Missile And Space Complex (TTMTR). Payload-class satellites include a variety of spacecraft equipped with specific instruments for various scientific and technological missions. These include communications satellites like Starlink; space stations such as the ISS; scientific satellites like the Hubble; Earth observation satellites from companies like Planet Labs, Umbra, and HawkEye 360; GPS; miniature CubeSats for education and research; and military/defense satellites.

Loading next visibility...
Identifier
31574, 2007-020D
Orbit
LEO
Last TLE update
4 hours ago
Origin
Manufacturer
SS/Loral
Mission
Operational Commercial Communications
Bus & Motor
LS-400, LS-400 AOCS
Mass
450 kg wet, 380 kg dry
Launch date (UTC)
2007-05-29 (18 years ago)
Launch vehicle
SOYUZ-FG
Launch site
Tyuratam Missile And Space Complex (TTMTR)
Object type
Payload
Rocket body
Debris
Shape & HBR
Box + 2 Pan, 12 m
Radar Cross Section
5.587 m², Large (>1 m²)

Expand to show TLE details & history

TLE from 4 hours ago
0 GLOBALSTAR M072
1 31574U 07020D   25192.24124032 -.00000056  00000-0  38325-3 0  9992
2 31574  51.9941 287.9345 0000882  45.3927 336.8900 11.91650192834668
Epoch: 2025-07-11T05:47Z
TLE epoch observation values (Epoch: 2025-07-11T05:47:23.163Z)
Latitude
17.40626°
Longitude
-74.1961°
Altitude
1,717.896 km
Speed
7.02 km/s
True Right ascension
20h 08m 11s
True Declination
17° 19' 12"
Sunlit
Object was in full shadow at epoch
Visualization orbit readout
Latitude
15.67914°
Longitude
-76.14393°
Altitude
1,717.819 km
Speed
7.02 km/s
Apparent Right ascension
17h 39m 30s
Apparent Declination
-23° 10' 24"
Sunlit
Object is in full shadow
Visualization observer readout
Local Sidereal Time
22:05:58
Azimuth
237.579° WSW
Elevation
1.566°
Doppler factor
1
Orbital elements
Apogee altitude
1,719.555 km
Perigee altitude
1,718.127 km
Semi-major axis
8,096.978 km
Eccentricity
0.00009
Inclination
51.9941°
RAAN
287.9345°
Arg. of periapsis
45.3927°
True anomaly
Unknown
Mean anomaly
336.89°
Eccentric anomaly
Unknown
Mean motion
2.97892 °/min
Orbital period
120.85 mins
BSTAR
0.00038325
Loading maneuver chart data...
Loading SW <> Apogee altitude chart data...
Loading historical data...
Loading historical data...
Loading historical data...
Loading historical data...
Loading historical data...
Loading historical data...
Loading historical data...

GLOBALSTAR M072 Visibility forecast

Observer location: undefined°, undefined°

Span
Click to sort rows by Start time (UTC) header in descending order
Start Az.
Max El. time (UTC)
Max El. Az.
Max El.
End time (UTC)
End Az.
20 mins2025-07-11 09:51:12.404Z239.353° WSW2025-07-11 10:01:12.404Z331.255° NNW44.219°2025-07-11 10:11:12.404Z52.23° ENE
18 mins2025-07-11 12:01:12.404Z283.94° WNW2025-07-11 12:10:12.404Z357.781° N34.553°2025-07-11 12:19:12.404Z61.164° ENE
17 mins2025-07-11 14:11:12.404Z309.433° NW2025-07-11 14:19:12.404Z20.748° NNE37.591°2025-07-11 14:28:12.404Z91.601° ESE
18 mins2025-07-11 16:18:12.404Z305.49° NW2025-07-11 16:27:12.404Z211.001° SW44.33°2025-07-11 16:36:12.404Z139.142° SSE
12 mins2025-07-11 18:27:12.404Z279.394° WNW2025-07-11 18:33:12.404Z238.325° WSW20.63°2025-07-11 18:39:12.404Z199.083° SSW
17 mins2025-07-12 07:57:12.404Z195° SSW2025-07-12 08:05:12.404Z124.495° SE36.931°2025-07-12 08:14:12.404Z59.609° ENE
|